Total_Precipitation_Accumulation
0.22 0.31 0.75 0.98 1.05 1.02 1.05 1.10 1.15 1.07 1.05 1.11 1.11 1.18 1.28 1.29 1.24 1.17 1.20 1.29 1.42 1.46 1.37 1.46 1.48 1.38 1.18 0.98 0.86 0.82 0.72 0.71 0.71 0.74 0.79 0.88 0.87 0.87 0.78 0.68 0.61 0.67 0.89
0.23 0.32 0.68 0.95 1.09 1.08 1.13 1.14 1.16 1.07 1.06 1.14 1.19 1.22 1.24 1.26 1.29 1.29 1.33 1.39 1.48 1.54 1.47 1.48 1.47 1.39 1.25 1.03 0.88 0.79 0.71 0.66 0.58 0.53 0.54 0.63 0.78 0.92 0.82 0.72 0.69 0.83 0.91
0.22 0.32 0.60 0.95 1.11 1.13 1.17 1.16 1.18 1.11 1.09 1.10 1.19 1.28 1.32 1.31 1.26 1.34 1.41 1.43 1.48 1.55 1.51 1.47 1.44 1.33 1.12 0.96 0.87 0.76 0.71 0.60 0.47 0.39 0.37 0.44 0.65 0.94 0.87 0.82 0.82 0.93 0.94
0.22 0.35 0.55 0.91 1.11 1.18 1.22 1.22 1.19 1.15 1.17 1.19 1.21 1.30 1.35 1.31 1.23 1.26 1.33 1.37 1.47 1.54 1.56 1.50 1.42 1.33 1.12 0.96 0.89 0.84 0.74 0.58 0.44 0.36 0.28 0.38 0.62 1.03 1.02 0.95 0.93 0.95 0.95
0.27 0.39 0.63 0.97 1.17 1.26 1.28 1.22 1.17 1.17 1.20 1.25 1.27 1.35 1.37 1.36 1.25 1.18 1.16 1.23 1.32 1.39 1.45 1.52 1.35 1.24 1.09 0.94 0.86 0.81 0.77 0.64 0.46 0.32 0.27 0.35 0.63 1.14 1.13 1.02 0.96 0.92 0.88
0.30 0.40 0.65 0.99 1.22 1.28 1.28 1.25 1.19 1.21 1.28 1.30 1.31 1.41 1.44 1.41 1.33 1.25 1.17 1.16 1.13 1.21 1.30 1.35 1.29 1.25 1.11 0.94 0.90 0.90 0.85 0.77 0.46 0.24 0.25 0.32 0.62 1.13 1.17 1.02 0.94 0.88 0.86
0.39 0.49 0.70 1.02 1.27 1.35 1.36 1.34 1.31 1.29 1.34 1.38 1.36 1.42 1.50 1.44 1.42 1.34 1.25 1.20 1.13 1.10 1.14 1.18 1.17 1.21 1.14 1.00 0.98 0.98 0.98 0.81 0.44 0.31 0.29 0.33 0.59 1.20 1.43 1.22 1.04 0.96 0.92
0.49 0.64 0.83 1.18 1.38 1.51 1.54 1.50 1.48 1.48 1.53 1.51 1.51 1.53 1.58 1.50 1.41 1.36 1.25 1.21 1.19 1.19 1.18 1.13 1.10 1.14 1.14 1.06 1.00 1.00 0.96 0.65 0.39 0.39 0.40 0.41 0.68 1.32 1.63 1.57 1.31 1.09 0.96
0.60 0.76 0.91 1.13 1.38 1.67 1.82 1.80 1.72 1.67 1.69 1.67 1.64 1.65 1.65 1.61 1.56 1.50 1.40 1.29 1.26 1.27 1.26 1.15 1.03 1.01 1.02 1.04 0.97 0.87 0.76 0.55 0.34 0.41 0.43 0.53 0.71 1.30 1.60 1.67 1.52 1.34 1.17
0.73 0.87 1.02 1.19 1.38 1.62 1.83 1.97 1.87 1.74 1.71 1.78 1.77 1.71 1.71 1.67 1.67 1.65 1.51 1.36 1.29 1.29 1.23 1.16 1.09 1.02 0.93 0.88 0.80 0.72 0.60 0.49 0.35 0.40 0.53 0.54 0.67 1.27 1.59 1.64 1.51 1.41 1.32
0.91 1.01 1.12 1.30 1.45 1.69 1.89 1.94 1.97 1.88 1.83 1.83 1.76 1.70 1.70 1.65 1.60 1.55 1.42 1.40 1.38 1.34 1.28 1.25 1.16 1.05 0.94 0.80 0.71 0.62 0.54 0.43 0.41 0.50 0.53 0.56 0.83 1.37 1.62 1.63 1.54 1.44 1.41
0.98 1.10 1.17 1.35 1.47 1.69 1.75 1.91 2.08 1.96 1.87 1.80 1.64 1.63 1.58 1.58 1.58 1.46 1.45 1.42 1.42 1.42 1.42 1.40 1.31 1.19 1.04 0.84 0.78 0.71 0.50 0.38 0.39 0.38 0.40 0.49 0.88 1.42 1.65 1.64 1.65 1.61 1.59
0.93 1.14 1.24 1.41 1.56 1.71 1.78 1.80 1.94 1.97 1.91 1.82 1.71 1.65 1.64 1.67 1.69 1.60 1.51 1.51 1.44 1.39 1.40 1.44 1.40 1.17 1.05 0.95 0.88 0.72 0.55 0.46 0.38 0.33 0.34 0.43 0.66 1.07 1.50 1.69 1.72 1.73 1.73
0.98 1.17 1.32 1.54 1.71 1.77 1.84 1.88 1.90 1.99 1.98 1.89 1.83 1.77 1.73 1.69 1.66 1.60 1.46 1.39 1.38 1.40 1.41 1.42 1.37 1.22 1.07 0.93 0.85 0.73 0.61 0.52 0.42 0.36 0.32 0.38 0.49 0.74 1.13 1.47 1.66 1.80 1.90
1.02 1.20 1.40 1.66 1.82 1.90 1.97 2.04 2.02 1.97 1.92 1.89 1.83 1.79 1.70 1.65 1.62 1.57 1.47 1.41 1.39 1.36 1.31 1.28 1.24 1.18 1.06 0.96 0.86 0.75 0.70 0.63 0.54 0.46 0.38 0.39 0.40 0.55 0.88 1.22 1.52 1.81 2.03
1.06 1.22 1.46 1.69 1.86 1.95 1.98 2.00 1.99 2.00 1.94 1.91 1.84 1.73 1.68 1.64 1.60 1.57 1.54 1.49 1.45 1.42 1.37 1.33 1.27 1.23 1.14 1.03 0.91 0.81 0.76 0.71 0.63 0.54 0.46 0.44 0.43 0.50 0.73 1.01 1.32 1.74 2.04
1.14 1.33 1.58 1.80 1.96 2.02 2.04 2.04 2.02 1.95 1.94 1.90 1.85 1.87 1.81 1.70 1.59 1.55 1.54 1.50 1.43 1.40 1.39 1.39 1.41 1.40 1.34 1.22 1.08 0.97 0.87 0.80 0.71 0.63 0.56 0.51 0.49 0.52 0.61 0.80 1.01 1.34 1.77
1.25 1.41 1.61 1.88 2.03 2.05 2.10 2.13 2.12 2.02 1.95 1.95 1.91 1.90 1.87 1.80 1.71 1.70 1.64 1.55 1.49 1.50 1.44 1.36 1.34 1.34 1.30 1.25 1.17 1.07 0.96 0.89 0.81 0.74 0.69 0.62 0.61 0.58 0.59 0.66 0.78 1.00 1.41
1.25 1.32 1.55 1.84 2.01 2.05 2.12 2.15 2.23 2.23 2.13 2.08 2.03 1.96 1.88 1.84 1.77 1.77 1.75 1.66 1.60 1.63 1.59 1.47 1.36 1.25 1.18 1.13 1.08 1.06 0.98 0.93 0.96 0.94 0.87 0.77 0.70 0.71 0.72 0.71 0.73 0.81 1.04
1.35 1.44 1.56 1.82 1.96 2.12 2.24 2.32 2.35 2.34 2.27 2.21 2.15 1.98 1.89 1.90 1.88 1.81 1.76 1.69 1.64 1.62 1.61 1.58 1.48 1.36 1.22 1.13 1.09 1.04 0.95 0.86 0.85 0.84 0.83 0.80 0.72 0.68 0.75 0.78 0.76 0.72 0.80
1.40 1.48 1.56 1.75 1.84 2.07 2.26 2.21 2.18 2.15 2.13 2.10 2.09 2.11 2.05 2.07 2.06 1.97 1.89 1.85 1.78 1.67 1.52 1.50 1.52 1.52 1.44 1.34 1.36 1.25 1.06 0.92 0.83 0.75 0.73 0.73 0.68 0.64 0.64 0.73 0.79 0.75 0.69
1.27 1.34 1.42 1.63 1.81 1.98 2.14 2.12 2.04 2.03 2.02 2.02 1.99 2.06 2.17 2.20 2.19 2.09 1.94 1.87 1.83 1.77 1.66 1.52 1.51 1.54 1.50 1.47 1.51 1.55 1.39 1.18 0.95 0.74 0.69 0.67 0.67 0.70 0.69 0.67 0.73 0.79 0.76
1.15 1.21 1.33 1.57 1.77 2.00 2.17 2.32 2.28 2.29 2.28 2.22 2.09 2.00 2.02 2.07 2.04 1.98 1.87 1.78 1.78 1.77 1.72 1.62 1.51 1.48 1.46 1.37 1.35 1.63 1.65 1.31 0.93 0.76 0.70 0.69 0.67 0.70 0.72 0.71 0.70 0.74 0.80
1.04 1.12 1.24 1.56 1.80 1.98 2.15 2.26 2.33 2.29 2.21 2.10 2.00 1.94 1.90 1.86 1.87 1.86 1.86 1.79 1.68 1.63 1.57 1.53 1.49 1.44 1.43 1.43 1.36 1.33 1.36 1.28 1.21 0.96 0.72 0.69 0.71 0.74 0.76 0.78 0.79 0.81 0.85
1.03 1.06 1.17 1.39 1.66 1.89 2.09 2.17 2.25 2.23 2.13 2.09 2.11 2.10 2.09 2.00 1.89 1.87 1.85 1.85 1.76 1.65 1.55 1.51 1.50 1.48 1.45 1.39 1.35 1.25 1.18 1.11 1.10 1.18 0.93 0.73 0.75 0.73 0.75 0.79 0.81 0.85 0.90
1.10 1.14 1.18 1.28 1.48 1.74 1.94 2.01 2.05 2.08 2.05 2.04 2.09 2.10 2.10 2.00 1.88 1.78 1.77 1.78 1.74 1.63 1.51 1.46 1.45 1.47 1.46 1.39 1.30 1.24 1.24 1.21 1.09 1.15 1.07 0.83 0.79 0.76 0.75 0.79 0.85 0.86 0.87